Regional Weather Roundup
Issued by NWS

Home | Current Version | Previous Version | Graphics & Text | Print | Product List | Glossary Off
Versions: 1 2 3 4 5 6 7 8 9 10 11 12 13 14 15 16 17 18 19 20 21 22 23 24 25 26 27 28 29 30 31 32 33 34 35 36 37 38 39 40 41 42 43 44 45 46 47 48 49 50

010
ASUS43 KLSX 280807
RWRMO

WEATHER SUMMARY FOR MISSOURI
NATIONAL WEATHER SERVICE SPRINGFIELD MO
300 AM CDT TUE MAR 28 2017

NOTE: "FAIR" INDICATES FEW OR NO CLOUDS BELOW 12,000 FEET WITH NO
       SIGNIFICANT WEATHER AND/OR OBSTRUCTIONS TO VISIBILITY.
       CURRENT SKY AND/OR WEATHER CONDITIONS ARE NOT AVAILABLE FOR
       CHILLICOTHE AND FARMINGTON.

MOZ001>031-035>038-043-044-053-054-280900-
...NORTHERN AND WESTERN MISSOURI...

CITY           SKY/WX    TMP DP  RH WIND       PRES   REMARKS
KANSAS CTY INT CLOUDY    49  45  86 N5        30.02S
KANSAS C DTWN  CLOUDY    50  48  93 N6        30.02S FOG
LEE`S SUMMIT   CLOUDY    49  47  93 N7        30.02F
ST JOSEPH      CLOUDY    47  46  97 CALM      30.04S
CHILLICOTHE      N/A     48  46  93 N5        30.03S
KIRKSVILLE     CLOUDY    48  47  96 N5        30.02R FOG

$$
MOZ066>068-077>081-088>096-101>105-280900-
...SOUTHWEST MISSOURI...

CITY           SKY/WX    TMP DP  RH WIND       PRES   REMARKS
SPRINGFIELD    CLOUDY    51  49  92 N6        29.98R
JOPLIN         CLOUDY    51  50  96 NE5       29.99S
BRANSON        CLOUDY    50  50 100 CALM      29.98S FOG

$$
MOZ032>034-039>042-045>050-055>058-069>072-280900-
...CENTRAL MISSOURI...

CITY           SKY/WX    TMP DP  RH WIND       PRES   REMARKS
COLUMBIA       CLOUDY    51  50  96 N7        29.98R
JEFFERSON CITY CLOUDY    55  50  83 NE5       29.98R
ROLLA          CLOUDY    52  52 100 N6        29.96R FOG
SEDALIA        CLOUDY    50  49  96 N6        30.01R
WHITEMAN AFB   CLOUDY    50  50 100 N7        30.00R
WARRENSBURG    CLOUDY    48  46  93 NW5       30.02R
OSAGE BEACH    MIX PCPN N/A N/A N/A W5        29.99R

$$
MOZ051-052-059>065-280900-
...EAST CENTRAL MISSOURI...

CITY           SKY/WX    TMP DP  RH WIND       PRES   REMARKS
ST LOUIS INTL  DRIZZLE   54  50  86 N9        29.98S
SPIRIT OF STL  CLOUDY    53  52  96 N8        29.97S
ST CHARLES     CLOUDY    53  51  93 N7        29.98R

$$
MOZ072>076-082>087-097>100-106>115-280900-
...SOUTH CENTRAL AND SOUTHEAST MISSOURI...

CITY           SKY/WX    TMP DP  RH WIND       PRES   REMARKS
CAPE GIRARDEAU MOCLDY    52  50  93 NW5       29.93S
FARMINGTON     CLOUDY    54  52  93 N7        29.95F
POPLAR BLUFF   CLEAR     54  52  93 N5        29.93S
WEST PLAINS    CLOUDY    52  50  93 NW3       29.97R

$$




USA.gov is the U.S. government's official web portal to all federal, state and local government web resources and services.